QPF
0.05 0.07 0.10 0.10 0.09 0.08 0.08 0.06 0.04 0.02 0.01 0.00 0.00 0.00 0.00 0.01 0.00 0.00 0.00 0.00 0.00 0.00 0.00 0.00 0.00 0.01 0.01 0.01 0.01 0.01 0.00 0.01 0.01 0.02 0.01 0.01 0.01 0.02 0.01 0.02 0.03 0.03 0.03
0.03 0.05 0.06 0.07 0.10 0.08 0.07 0.06 0.05 0.03 0.02 0.01 0.01 0.00 0.00 0.01 0.00 0.00 0.00 0.00 0.00 0.00 0.00 0.00 0.00 0.00 0.01 0.01 0.01 0.00 0.01 0.01 0.01 0.01 0.01 0.01 0.01 0.02 0.02 0.02 0.02 0.02 0.02
0.02 0.04 0.06 0.06 0.06 0.07 0.06 0.05 0.04 0.03 0.02 0.02 0.02 0.01 0.01 0.01 0.00 0.00 0.00 0.00 0.01 0.00 0.00 0.00 0.00 0.01 0.01 0.01 0.01 0.00 0.00 0.00 0.00 0.01 0.01 0.01 0.02 0.01 0.01 0.01 0.01 0.02 0.03
0.02 0.03 0.05 0.06 0.05 0.05 0.04 0.04 0.04 0.03 0.03 0.02 0.02 0.02 0.02 0.01 0.01 0.01 0.00 0.00 0.00 0.00 0.01 0.00 0.01 0.01 0.01 0.01 0.01 0.00 0.00 0.00 0.00 0.01 0.01 0.01 0.02 0.02 0.01 0.00 0.01 0.02 0.03
0.02 0.02 0.03 0.04 0.05 0.04 0.04 0.04 0.04 0.04 0.03 0.03 0.03 0.02 0.02 0.01 0.01 0.01 0.01 0.01 0.01 0.01 0.01 0.01 0.01 0.01 0.02 0.01 0.01 0.01 0.01 0.00 0.00 0.01 0.01 0.02 0.02 0.02 0.01 0.00 0.01 0.02 0.03
0.03 0.03 0.04 0.05 0.05 0.05 0.04 0.04 0.05 0.05 0.05 0.04 0.03 0.02 0.02 0.02 0.02 0.02 0.01 0.01 0.01 0.01 0.01 0.01 0.01 0.01 0.01 0.01 0.01 0.01 0.01 0.01 0.01 0.01 0.01 0.01 0.02 0.01 0.01 0.01 0.00 0.01 0.03
0.02 0.03 0.04 0.06 0.05 0.05 0.05 0.05 0.05 0.05 0.05 0.04 0.04 0.02 0.02 0.02 0.02 0.02 0.01 0.01 0.01 0.01 0.01 0.01 0.01 0.01 0.01 0.01 0.01 0.00 0.00 0.01 0.01 0.01 0.01 0.01 0.01 0.01 0.01 0.01 0.01 0.01 0.02
0.02 0.01 0.01 0.03 0.04 0.03 0.03 0.02 0.03 0.04 0.04 0.05 0.04 0.03 0.02 0.02 0.01 0.01 0.02 0.01 0.01 0.01 0.01 0.01 0.01 0.01 0.01 0.01 0.01 0.00 0.00 0.00 0.01 0.01 0.01 0.01 0.01 0.01 0.01 0.01 0.01 0.01 0.02
0.04 0.03 0.02 0.02 0.03 0.04 0.03 0.03 0.03 0.04 0.04 0.04 0.05 0.05 0.03 0.02 0.02 0.01 0.01 0.01 0.01 0.01 0.01 0.01 0.01 0.01 0.01 0.02 0.01 0.01 0.01 0.01 0.01 0.01 0.01 0.01 0.01 0.01 0.01 0.01 0.01 0.01 0.01
0.03 0.04 0.04 0.04 0.03 0.04 0.04 0.03 0.04 0.04 0.04 0.05 0.05 0.06 0.04 0.02 0.01 0.01 0.01 0.01 0.01 0.01 0.01 0.01 0.01 0.02 0.02 0.02 0.02 0.01 0.01 0.01 0.01 0.00 0.00 0.00 0.01 0.01 0.01 0.01 0.01 0.01 0.02
0.01 0.03 0.04 0.03 0.04 0.04 0.04 0.04 0.04 0.05 0.05 0.05 0.05 0.05 0.05 0.04 0.02 0.02 0.02 0.02 0.02 0.02 0.02 0.02 0.02 0.02 0.02 0.02 0.02 0.01 0.01 0.01 0.01 0.01 0.01 0.00 0.01 0.01 0.01 0.01 0.01 0.02 0.01
0.01 0.01 0.02 0.03 0.03 0.04 0.04 0.04 0.04 0.04 0.04 0.04 0.05 0.06 0.07 0.06 0.03 0.02 0.02 0.02 0.03 0.03 0.03 0.04 0.03 0.03 0.02 0.02 0.01 0.01 0.01 0.02 0.02 0.02 0.01 0.01 0.01 0.01 0.01 0.01 0.02 0.02 0.01
0.01 0.01 0.01 0.02 0.03 0.03 0.04 0.05 0.04 0.04 0.04 0.04 0.05 0.06 0.07 0.07 0.05 0.04 0.03 0.03 0.03 0.03 0.04 0.04 0.04 0.03 0.02 0.02 0.02 0.02 0.01 0.01 0.01 0.02 0.02 0.02 0.02 0.01 0.01 0.01 0.02 0.01 0.01
0.01 0.01 0.01 0.02 0.02 0.03 0.04 0.06 0.05 0.05 0.05 0.04 0.05 0.05 0.05 0.06 0.05 0.03 0.02 0.02 0.03 0.03 0.03 0.03 0.03 0.03 0.03 0.03 0.02 0.01 0.01 0.01 0.01 0.01 0.02 0.02 0.02 0.01 0.01 0.01 0.01 0.01 0.01
0.01 0.01 0.02 0.02 0.02 0.02 0.03 0.04 0.05 0.05 0.06 0.07 0.07 0.06 0.05 0.05 0.06 0.05 0.03 0.02 0.02 0.02 0.02 0.02 0.02 0.03 0.03 0.03 0.03 0.03 0.03 0.03 0.03 0.02 0.02 0.02 0.02 0.03 0.02 0.02 0.02 0.02 0.02
0.01 0.01 0.01 0.01 0.01 0.01 0.02 0.03 0.03 0.03 0.04 0.04 0.05 0.06 0.05 0.05 0.05 0.05 0.04 0.02 0.02 0.02 0.02 0.02 0.02 0.02 0.03 0.03 0.03 0.03 0.03 0.03 0.03 0.03 0.03 0.03 0.03 0.02 0.03 0.03 0.03 0.03 0.03
0.01 0.01 0.01 0.01 0.01 0.01 0.02 0.02 0.02 0.03 0.03 0.02 0.02 0.03 0.04 0.05 0.04 0.04 0.05 0.03 0.02 0.02 0.01 0.01 0.01 0.01 0.01 0.01 0.02 0.02 0.02 0.02 0.02 0.03 0.03 0.04 0.04 0.04 0.03 0.04 0.04 0.04 0.04
0.01 0.02 0.02 0.01 0.01 0.02 0.02 0.02 0.02 0.02 0.02 0.02 0.02 0.02 0.03 0.03 0.04 0.04 0.05 0.04 0.03 0.02 0.02 0.02 0.01 0.01 0.01 0.01 0.01 0.01 0.01 0.02 0.02 0.03 0.03 0.03 0.03 0.04 0.05 0.05 0.05 0.05 0.05
0.01 0.01 0.01 0.01 0.01 0.01 0.01 0.01 0.01 0.01 0.01 0.01 0.02 0.02 0.02 0.02 0.03 0.04 0.05 0.04 0.03 0.01 0.01 0.01 0.02 0.02 0.01 0.01 0.01 0.01 0.01 0.01 0.01 0.02 0.02 0.03 0.03 0.04 0.04 0.04 0.04 0.04 0.04
0.01 0.02 0.02 0.01 0.01 0.01 0.01 0.01 0.01 0.01 0.01 0.01 0.01 0.01 0.02 0.02 0.03 0.04 0.05 0.04 0.02 0.01 0.01 0.01 0.01 0.02 0.02 0.01 0.01 0.01 0.00 0.00 0.00 0.01 0.01 0.02 0.02 0.03 0.03 0.03 0.03 0.03 0.03
0.01 0.02 0.02 0.01 0.01 0.01 0.01 0.01 0.01 0.01 0.01 0.01 0.01 0.01 0.01 0.01 0.02 0.02 0.03 0.03 0.02 0.01 0.01 0.01 0.01 0.01 0.02 0.02 0.02 0.01 0.01 0.01 0.00 0.00 0.00 0.01 0.01 0.01 0.02 0.03 0.04 0.04 0.04
0.01 0.01 0.01 0.01 0.01 0.01 0.01 0.01 0.01 0.01 0.01 0.01 0.01 0.01 0.01 0.00 0.01 0.01 0.01 0.01 0.01 0.01 0.01 0.01 0.01 0.01 0.01 0.02 0.02 0.02 0.02 0.02 0.01 0.01 0.01 0.01 0.01 0.01 0.02 0.03 0.02 0.02 0.02
0.01 0.01 0.01 0.01 0.01 0.01 0.01 0.01 0.01 0.01 0.01 0.01 0.01 0.01 0.01 0.01 0.01 0.01 0.01 0.01 0.01 0.01 0.01 0.01 0.01 0.01 0.01 0.01 0.01 0.01 0.01 0.02 0.02 0.01 0.01 0.01 0.01 0.01 0.02 0.02 0.02 0.02 0.02
0.01 0.01 0.01 0.01 0.01 0.01 0.01 0.01 0.01 0.01 0.01 0.01 0.01 0.01 0.01 0.01 0.01 0.01 0.01 0.01 0.01 0.01 0.01 0.01 0.01 0.01 0.01 0.01 0.01 0.01 0.01 0.01 0.01 0.01 0.01 0.01 0.01 0.01 0.02 0.01 0.01 0.02 0.02
0.01 0.01 0.01 0.01 0.01 0.01 0.01 0.01 0.01 0.01 0.01 0.01 0.01 0.01 0.01 0.01 0.01 0.01 0.01 0.01 0.01 0.01 0.01 0.01 0.01 0.01 0.01 0.01 0.01 0.01 0.01 0.02 0.02 0.02 0.01 0.01 0.01 0.01 0.01 0.01 0.01 0.01 0.01
0.02 0.02 0.02 0.01 0.01 0.01 0.01 0.02 0.02 0.02 0.02 0.01 0.01 0.01 0.01 0.01 0.01 0.01 0.01 0.01 0.01 0.01 0.01 0.01 0.01 0.01 0.01 0.00 0.00 0.01 0.01 0.01 0.01 0.01 0.01 0.01 0.01 0.01 0.01 0.01 0.01 0.01 0.01
MSLP
1009.77 1010.47 1011.15 1011.75 1012.27 1012.70 1013.06 1013.37 1013.66 1013.96 1014.29 1014.65 1015.02 1015.40 1015.76 1016.08 1016.35 1016.58 1016.78 1016.97 1017.16 1017.38 1017.63 1017.91 1018.22 1018.54 1018.85 1019.14 1019.41 1019.65 1019.88 1020.09 1020.30 1020.52 1020.73 1020.94 1021.14 1021.31 1021.45 1021.56 1021.63 1021.67 1021.70
1008.97 1009.66 1010.34 1010.98 1011.54 1012.02 1012.43 1012.79 1013.12 1013.45 1013.79 1014.15 1014.53 1014.90 1015.25 1015.58 1015.87 1016.12 1016.34 1016.56 1016.78 1017.02 1017.29 1017.58 1017.89 1018.20 1018.52 1018.82 1019.10 1019.38 1019.64 1019.90 1020.17 1020.44 1020.71 1020.96 1021.19 1021.39 1021.54 1021.64 1021.69 1021.70 1021.69
1008.18 1008.84 1009.51 1010.15 1010.73 1011.25 1011.70 1012.10 1012.46 1012.82 1013.17 1013.53 1013.91 1014.27 1014.63 1014.96 1015.27 1015.55 1015.81 1016.06 1016.32 1016.59 1016.88 1017.19 1017.51 1017.83 1018.15 1018.46 1018.76 1019.06 1019.36 1019.67 1019.98 1020.31 1020.63 1020.93 1021.20 1021.42 1021.58 1021.68 1021.71 1021.70 1021.65
1007.44 1008.03 1008.65 1009.27 1009.86 1010.39 1010.86 1011.29 1011.69 1012.06 1012.43 1012.80 1013.17 1013.54 1013.90 1014.25 1014.57 1014.88 1015.17 1015.47 1015.77 1016.07 1016.39 1016.72 1017.05 1017.38 1017.70 1018.02 1018.34 1018.66 1018.98 1019.32 1019.68 1020.04 1020.41 1020.75 1021.05 1021.30 1021.49 1021.60 1021.64 1021.62 1021.56
1006.78 1007.27 1007.81 1008.38 1008.93 1009.46 1009.94 1010.38 1010.80 1011.19 1011.58 1011.97 1012.35 1012.72 1013.09 1013.44 1013.79 1014.12 1014.44 1014.77 1015.10 1015.43 1015.78 1016.12 1016.47 1016.80 1017.13 1017.46 1017.78 1018.11 1018.46 1018.82 1019.20 1019.60 1019.99 1020.36 1020.70 1020.99 1021.21 1021.35 1021.42 1021.43 1021.38
1006.22 1006.58 1007.02 1007.51 1008.00 1008.49 1008.96 1009.41 1009.84 1010.26 1010.67 1011.07 1011.46 1011.85 1012.22 1012.58 1012.93 1013.28 1013.62 1013.96 1014.31 1014.67 1015.03 1015.39 1015.74 1016.09 1016.42 1016.75 1017.08 1017.42 1017.77 1018.14 1018.53 1018.95 1019.36 1019.76 1020.13 1020.46 1020.72 1020.92 1021.04 1021.10 1021.11
1005.79 1006.01 1006.32 1006.69 1007.10 1007.53 1007.97 1008.41 1008.85 1009.29 1009.72 1010.14 1010.55 1010.95 1011.32 1011.68 1012.03 1012.37 1012.71 1013.06 1013.42 1013.78 1014.15 1014.52 1014.88 1015.24 1015.58 1015.92 1016.25 1016.59 1016.95 1017.32 1017.72 1018.14 1018.57 1018.99 1019.39 1019.76 1020.07 1020.33 1020.54 1020.68 1020.77
1005.49 1005.56 1005.72 1005.96 1006.27 1006.62 1007.02 1007.44 1007.87 1008.32 1008.77 1009.21 1009.63 1010.03 1010.40 1010.75 1011.09 1011.42 1011.75 1012.09 1012.44 1012.80 1013.17 1013.55 1013.93 1014.30 1014.66 1015.01 1015.35 1015.70 1016.07 1016.44 1016.84 1017.26 1017.70 1018.13 1018.56 1018.97 1019.35 1019.68 1019.97 1020.21 1020.40
1005.30 1005.22 1005.24 1005.34 1005.53 1005.79 1006.12 1006.51 1006.93 1007.37 1007.83 1008.27 1008.70 1009.09 1009.46 1009.80 1010.12 1010.43 1010.75 1011.07 1011.42 1011.79 1012.17 1012.56 1012.96 1013.35 1013.74 1014.11 1014.48 1014.85 1015.22 1015.61 1016.02 1016.44 1016.88 1017.33 1017.78 1018.22 1018.65 1019.05 1019.42 1019.76 1020.04
1005.18 1004.97 1004.84 1004.81 1004.88 1005.05 1005.30 1005.63 1006.01 1006.44 1006.88 1007.32 1007.74 1008.13 1008.49 1008.81 1009.12 1009.42 1009.73 1010.06 1010.41 1010.79 1011.20 1011.62 1012.05 1012.48 1012.91 1013.32 1013.72 1014.12 1014.52 1014.92 1015.34 1015.77 1016.21 1016.67 1017.14 1017.61 1018.07 1018.53 1018.96 1019.37 1019.73
1005.10 1004.77 1004.51 1004.35 1004.30 1004.36 1004.52 1004.78 1005.11 1005.50 1005.92 1006.33 1006.74 1007.12 1007.46 1007.79 1008.10 1008.41 1008.73 1009.08 1009.46 1009.88 1010.33 1010.79 1011.28 1011.76 1012.23 1012.69 1013.14 1013.57 1014.00 1014.43 1014.86 1015.30 1015.76 1016.22 1016.70 1017.18 1017.66 1018.14 1018.61 1019.05 1019.47
1005.00 1004.57 1004.20 1003.92 1003.75 1003.70 1003.77 1003.94 1004.20 1004.53 1004.91 1005.29 1005.67 1006.04 1006.39 1006.72 1007.05 1007.40 1007.76 1008.16 1008.60 1009.08 1009.58 1010.12 1010.66 1011.20 1011.73 1012.24 1012.74 1013.21 1013.68 1014.13 1014.59 1015.05 1015.51 1015.98 1016.45 1016.93 1017.41 1017.89 1018.35 1018.80 1019.22
1004.83 1004.31 1003.85 1003.47 1003.19 1003.04 1003.01 1003.09 1003.27 1003.53 1003.85 1004.19 1004.55 1004.90 1005.26 1005.63 1006.00 1006.40 1006.84 1007.31 1007.83 1008.39 1008.98 1009.58 1010.19 1010.80 1011.38 1011.94 1012.48 1013.00 1013.50 1013.98 1014.46 1014.94 1015.41 1015.88 1016.35 1016.81 1017.27 1017.72 1018.15 1018.56 1018.94
1004.54 1003.96 1003.42 1002.95 1002.59 1002.35 1002.23 1002.22 1002.33 1002.51 1002.76 1003.06 1003.39 1003.74 1004.12 1004.52 1004.96 1005.44 1005.96 1006.54 1007.16 1007.81 1008.48 1009.16 1009.84 1010.49 1011.12 1011.72 1012.29 1012.84 1013.37 1013.88 1014.38 1014.88 1015.36 1015.84 1016.30 1016.74 1017.16 1017.56 1017.94 1018.29 1018.61
1004.09 1003.46 1002.87 1002.35 1001.93 1001.62 1001.43 1001.36 1001.39 1001.50 1001.69 1001.95 1002.25 1002.60 1003.00 1003.45 1003.96 1004.53 1005.15 1005.83 1006.54 1007.29 1008.04 1008.79 1009.52 1010.21 1010.87 1011.50 1012.09 1012.65 1013.20 1013.73 1014.25 1014.77 1015.27 1015.75 1016.20 1016.62 1017.01 1017.36 1017.67 1017.94 1018.18
1003.43 1002.78 1002.18 1001.65 1001.21 1000.87 1000.65 1000.53 1000.50 1000.57 1000.71 1000.92 1001.21 1001.56 1001.98 1002.48 1003.05 1003.69 1004.41 1005.17 1005.97 1006.80 1007.61 1008.41 1009.17 1009.89 1010.56 1011.18 1011.78 1012.35 1012.91 1013.46 1014.00 1014.53 1015.04 1015.53 1015.99 1016.40 1016.75 1017.06 1017.30 1017.51 1017.66
1002.57 1001.94 1001.36 1000.85 1000.43 1000.12 999.89 999.76 999.72 999.75 999.87 1000.05 1000.33 1000.68 1001.11 1001.64 1002.26 1002.96 1003.74 1004.57 1005.43 1006.30 1007.16 1007.98 1008.75 1009.47 1010.14 1010.76 1011.35 1011.92 1012.48 1013.03 1013.59 1014.14 1014.67 1015.18 1015.64 1016.04 1016.38 1016.65 1016.85 1017.00 1017.08
1001.55 1000.96 1000.44 1000.00 999.65 999.39 999.21 999.10 999.08 999.11 999.22 999.40 999.65 1000.00 1000.44 1000.98 1001.62 1002.35 1003.16 1004.02 1004.91 1005.80 1006.67 1007.49 1008.26 1008.97 1009.63 1010.23 1010.81 1011.37 1011.93 1012.49 1013.06 1013.63 1014.18 1014.70 1015.17 1015.58 1015.91 1016.17 1016.34 1016.45 1016.49
1000.42 999.90 999.47 999.14 998.89 998.72 998.62 998.58 998.60 998.66 998.78 998.96 999.22 999.56 999.99 1000.53 1001.16 1001.89 1002.69 1003.55 1004.44 1005.32 1006.18 1006.99 1007.74 1008.44 1009.08 1009.67 1010.24 1010.79 1011.35 1011.92 1012.49 1013.06 1013.63 1014.16 1014.64 1015.05 1015.39 1015.64 1015.80 1015.89 1015.91
999.30 998.87 998.55 998.33 998.20 998.15 998.15 998.20 998.28 998.40 998.55 998.75 999.01 999.34 999.76 1000.27 1000.88 1001.58 1002.35 1003.18 1004.04 1004.90 1005.73 1006.52 1007.26 1007.94 1008.57 1009.16 1009.72 1010.27 1010.83 1011.39 1011.96 1012.53 1013.09 1013.62 1014.10 1014.52 1014.86 1015.11 1015.27 1015.36 1015.38
998.33 997.98 997.77 997.66 997.65 997.71 997.82 997.96 998.12 998.30 998.49 998.72 998.98 999.31 999.71 1000.19 1000.77 1001.42 1002.16 1002.94 1003.76 1004.59 1005.40 1006.17 1006.89 1007.57 1008.20 1008.79 1009.35 1009.90 1010.45 1011.00 1011.56 1012.11 1012.65 1013.16 1013.62 1014.02 1014.35 1014.60 1014.77 1014.87 1014.90
997.62 997.35 997.21 997.20 997.28 997.44 997.64 997.86 998.10 998.33 998.57 998.83 999.11 999.44 999.82 1000.28 1000.82 1001.43 1002.12 1002.87 1003.65 1004.44 1005.22 1005.98 1006.71 1007.39 1008.02 1008.62 1009.19 1009.74 1010.28 1010.81 1011.33 1011.85 1012.34 1012.81 1013.23 1013.60 1013.90 1014.14 1014.31 1014.42 1014.46
997.32 997.09 997.00 997.03 997.17 997.38 997.64 997.92 998.21 998.50 998.78 999.06 999.36 999.70 1000.08 1000.52 1001.03 1001.61 1002.27 1002.98 1003.73 1004.50 1005.27 1006.02 1006.75 1007.44 1008.09 1008.70 1009.27 1009.81 1010.33 1010.82 1011.30 1011.75 1012.18 1012.58 1012.94 1013.25 1013.52 1013.73 1013.89 1013.99 1014.05
997.50 997.27 997.18 997.22 997.37 997.60 997.87 998.17 998.49 998.80 999.11 999.42 999.74 1000.09 1000.47 1000.91 1001.41 1001.97 1002.61 1003.29 1004.02 1004.78 1005.54 1006.30 1007.03 1007.73 1008.38 1008.99 1009.56 1010.08 1010.56 1011.00 1011.41 1011.79 1012.14 1012.45 1012.73 1012.98 1013.19 1013.36 1013.49 1013.59 1013.65
998.19 997.93 997.81 997.82 997.93 998.12 998.37 998.66 998.97 999.28 999.60 999.93 1000.26 1000.63 1001.02 1001.47 1001.97 1002.53 1003.15 1003.82 1004.53 1005.28 1006.03 1006.78 1007.51 1008.21 1008.86 1009.45 1009.99 1010.48 1010.90 1011.29 1011.62 1011.91 1012.17 1012.39 1012.59 1012.76 1012.90 1013.03 1013.13 1013.20 1013.25
999.35 999.05 998.88 998.82 998.86 999.00 999.19 999.43 999.70 1000.00 1000.31 1000.64 1000.98 1001.36 1001.77 1002.22 1002.72 1003.28 1003.89 1004.55 1005.25 1005.97 1006.71 1007.44 1008.14 1008.81 1009.43 1009.99 1010.49 1010.92 1011.29 1011.59 1011.85 1012.05 1012.22 1012.35 1012.47 1012.57 1012.65 1012.72 1012.78 1012.83 1012.85
Thickness
5687 5685 5684 5682 5681 5679 5677 5675 5673 5671 5670 5668 5666 5663 5660 5657 5655 5651 5647 5644 5641 5638 5635 5633 5631 5630 5628 5626 5625 5623 5621 5620 5616 5615 5615 5616 5617 5617 5618 5619 5619 5619 5620
5682 5681 5679 5677 5676 5674 5673 5671 5670 5668 5666 5664 5661 5659 5656 5653 5650 5647 5643 5640 5637 5634 5631 5629 5626 5625 5622 5621 5619 5618 5616 5615 5612 5609 5608 5609 5610 5611 5611 5612 5613 5613 5614
5677 5675 5673 5672 5670 5668 5667 5666 5664 5663 5661 5659 5657 5655 5652 5649 5646 5643 5639 5636 5633 5630 5627 5625 5622 5620 5617 5615 5614 5612 5610 5610 5607 5604 5602 5602 5602 5603 5604 5605 5606 5606 5607
5671 5670 5668 5667 5666 5664 5662 5660 5659 5657 5656 5654 5652 5650 5648 5645 5641 5638 5634 5631 5628 5626 5623 5621 5619 5617 5615 5612 5610 5608 5605 5603 5600 5598 5596 5595 5594 5595 5596 5596 5597 5598 5599
5665 5664 5663 5662 5661 5659 5657 5655 5653 5652 5651 5649 5646 5644 5642 5640 5637 5633 5630 5627 5623 5621 5619 5617 5615 5614 5612 5610 5608 5604 5601 5597 5594 5592 5590 5589 5588 5588 5589 5589 5590 5590 5591
5659 5658 5658 5655 5654 5652 5651 5649 5647 5645 5644 5642 5640 5638 5636 5634 5632 5630 5627 5623 5619 5616 5614 5612 5611 5610 5608 5606 5604 5602 5599 5595 5591 5588 5585 5584 5584 5583 5583 5583 5582 5582 5583
5653 5652 5651 5650 5648 5646 5645 5642 5640 5638 5636 5635 5634 5632 5630 5629 5628 5625 5623 5618 5615 5612 5610 5608 5607 5606 5603 5601 5599 5596 5594 5593 5591 5587 5583 5582 5580 5580 5578 5577 5576 5575 5576
5646 5645 5644 5642 5641 5639 5637 5635 5633 5631 5629 5628 5627 5625 5624 5623 5622 5620 5617 5613 5610 5607 5605 5603 5601 5599 5598 5595 5592 5589 5586 5585 5584 5583 5581 5580 5579 5577 5575 5574 5572 5570 5570
5638 5637 5637 5635 5633 5631 5629 5628 5626 5625 5623 5621 5619 5618 5616 5616 5615 5613 5611 5606 5602 5600 5599 5597 5596 5593 5593 5590 5586 5582 5580 5579 5579 5578 5577 5575 5574 5573 5571 5568 5566 5565 5564
5632 5631 5630 5629 5627 5625 5624 5621 5619 5618 5616 5614 5611 5610 5609 5608 5607 5606 5604 5599 5595 5593 5591 5590 5589 5588 5586 5583 5579 5576 5574 5573 5571 5570 5569 5568 5567 5566 5565 5563 5561 5559 5557
5626 5624 5622 5621 5620 5619 5617 5614 5612 5610 5607 5605 5603 5602 5601 5601 5600 5600 5597 5594 5590 5587 5584 5582 5581 5581 5579 5576 5573 5571 5569 5567 5564 5563 5561 5560 5559 5558 5557 5556 5555 5554 5552
5618 5616 5614 5613 5612 5611 5608 5605 5603 5601 5598 5596 5594 5593 5592 5592 5592 5592 5590 5588 5585 5581 5578 5576 5575 5574 5571 5569 5566 5564 5562 5560 5557 5555 5553 5552 5551 5550 5550 5550 5549 5548 5548
5609 5607 5606 5605 5604 5602 5599 5597 5594 5592 5590 5588 5587 5586 5585 5584 5584 5584 5582 5580 5577 5574 5572 5570 5568 5566 5563 5560 5558 5556 5554 5551 5549 5547 5545 5544 5543 5543 5543 5542 5542 5541 5541
5602 5599 5598 5596 5594 5593 5591 5589 5587 5584 5583 5582 5581 5579 5578 5576 5576 5575 5573 5571 5568 5565 5563 5561 5559 5556 5554 5552 5550 5547 5545 5543 5542 5540 5538 5536 5535 5534 5534 5534 5534 5534 5533
5593 5592 5590 5588 5586 5584 5582 5581 5580 5579 5578 5578 5576 5574 5571 5570 5571 5570 5567 5564 5560 5558 5554 5551 5548 5546 5544 5542 5540 5538 5536 5535 5533 5532 5530 5528 5527 5527 5526 5526 5526 5525 5525
5584 5582 5581 5579 5577 5575 5573 5572 5572 5571 5571 5570 5570 5568 5567 5567 5565 5562 5560 5557 5554 5551 5547 5544 5541 5539 5537 5535 5532 5530 5529 5527 5526 5524 5522 5521 5520 5519 5518 5518 5517 5517 5517
5575 5574 5572 5570 5568 5567 5565 5563 5561 5561 5560 5560 5560 5560 5559 5558 5556 5554 5552 5548 5545 5543 5539 5537 5535 5532 5530 5528 5525 5524 5522 5520 5518 5517 5515 5513 5512 5511 5510 5509 5509 5508 5508
5567 5566 5564 5562 5560 5558 5557 5555 5554 5552 5550 5549 5550 5550 5550 5549 5547 5545 5542 5539 5535 5533 5532 5530 5528 5525 5522 5520 5518 5516 5514 5512 5510 5509 5508 5506 5505 5503 5502 5501 5501 5500 5500
5558 5557 5556 5553 5551 5550 5548 5546 5545 5544 5542 5541 5540 5540 5540 5539 5538 5535 5533 5531 5529 5527 5525 5523 5521 5519 5516 5514 5512 5510 5507 5505 5503 5501 5500 5499 5497 5496 5495 5494 5493 5493 5492
5549 5550 5549 5545 5543 5541 5539 5538 5537 5536 5535 5534 5533 5533 5531 5529 5527 5525 5524 5523 5522 5520 5518 5516 5514 5512 5509 5507 5505 5502 5500 5498 5496 5494 5493 5491 5490 5489 5488 5487 5486 5485 5485
5540 5540 5541 5537 5535 5533 5532 5531 5529 5528 5527 5526 5526 5526 5525 5523 5521 5519 5517 5515 5514 5513 5511 5509 5507 5505 5503 5501 5498 5496 5494 5492 5490 5488 5487 5485 5484 5483 5482 5480 5479 5478 5478
5533 5531 5530 5529 5527 5526 5525 5523 5522 5520 5520 5519 5518 5517 5517 5515 5513 5512 5511 5509 5507 5506 5505 5502 5500 5499 5497 5494 5492 5490 5488 5486 5485 5483 5481 5480 5478 5477 5475 5474 5472 5471 5471
5525 5524 5522 5521 5520 5519 5517 5515 5514 5513 5512 5510 5509 5509 5508 5506 5505 5504 5503 5502 5500 5498 5497 5495 5493 5492 5490 5488 5486 5484 5483 5482 5480 5478 5476 5474 5473 5471 5470 5468 5466 5465 5464
5518 5517 5515 5513 5511 5510 5508 5507 5506 5505 5504 5502 5502 5501 5500 5499 5498 5497 5496 5495 5493 5492 5490 5488 5487 5486 5484 5482 5480 5479 5478 5476 5475 5473 5471 5469 5467 5466 5464 5462 5460 5459 5458
5509 5508 5506 5504 5503 5502 5500 5498 5497 5496 5496 5495 5495 5494 5493 5491 5491 5490 5488 5487 5486 5484 5483 5482 5480 5479 5478 5476 5474 5473 5472 5470 5469 5467 5465 5463 5462 5460 5458 5456 5454 5453 5452
5499 5498 5497 5495 5494 5493 5491 5490 5489 5488 5487 5487 5487 5486 5485 5484 5482 5481 5480 5479 5477 5476 5475 5475 5474 5473 5471 5469 5468 5467 5466 5464 5463 5461 5459 5457 5456 5454 5452 5450 5449 5447 5445